x

8452951 - Potter Cove, Prudence Island, Ri (ptcr1) Weather Station

6:54 - Fri 23rd Jun 2017 All times are EDT. -4 hours from GMT.

  • Wind
    3mph, 8mph gusts
  • Ar Temp 66°f
  • Sea Pressure 1010mb
  • 8452951 - Potter Cove, Prudence Island, Ri
  • 8452951 - Potter Cove, Prudence Island, Ri

More Historic Weather Station data

Upgrade to MSW Pro to gain access to the past 30 days of data for over 8000 Wavebouys and Weather Stations around the globe.

Join Pro

Comparision Forecast

View Surf forecast
   
Sex 06/23 6:54 3 8 mph 1010mb 66f
6:48 5 10 mph 1009.9mb 66f
6:42 5 8 mph 1009.9mb 66f
6:36 5 9 mph 1009.9mb 66f
6:30 3 7 mph 1009.8mb 66f
6:24 3 6 mph 1010mb 66f
6:18 3 6 mph - -
6:12 3 7 mph 1010mb 66f
6:06 5 8 mph 1010mb 66f
6:00 5 9 mph 1010.1mb 66f
5:54 5 9 mph 1010.1mb 66f
5:48 5 9 mph - -
5:42 3 7 mph 1010.1mb 66f
5:36 3 8 mph 1010mb 66f
5:30 3 7 mph 1010mb 66f
5:24 3 9 mph 1010mb 66f
5:18 3 7 mph 1010.1mb 66f
5:12 3 8 mph 1010.1mb 66f
5:06 2 6 mph 1010.1mb 67f
5:00 2 6 mph 1010mb 67f
4:54 2 5 mph 1010mb 66f
4:48 2 6 mph - -
4:42 3 7 mph 1010.1mb 66f
4:36 5 7 mph 1010.2mb 66f
4:30 5 7 mph 1010.1mb 66f
4:24 3 8 mph 1010.1mb 66f
4:18 5 8 mph 1010.1mb 66f
4:12 5 8 mph 1010mb 66f
4:06 3 7 mph 1010mb 67f
4:00 2 7 mph 1010mb 67f
3:54 3 6 mph 1010mb 67f
3:48 2 5 mph 1010mb 67f
3:42 2 6 mph 1010.1mb 67f
3:36 5 8 mph 1010.1mb 67f
3:30 2 7 mph 1010.1mb 67f
3:24 3 6 mph 1010.1mb 67f
3:18 2 6 mph 1010.3mb 66f
3:12 3 6 mph 1010.3mb 66f
3:06 2 5 mph 1010.3mb 67f
3:00 3 6 mph 1010.3mb 67f
2:42 3 7 mph 1010.6mb -
2:36 5 7 mph 1010.7mb -
2:30 2 6 mph 1010.8mb 67f
2:24 2 5 mph 1010.9mb 67f
2:18 3 6 mph 1011mb 67f
2:12 2 7 mph 1011mb 67f
2:06 2 6 mph 1011.1mb 67f
2:00 1 3 mph 1011.2mb 67f
1:54 2 6 mph 1011.3mb 67f
1:48 1 5 mph 1011.5mb 67f
1:42 2 6 mph 1011.6mb -
1:36 3 6 mph 1011.6mb -
1:30 2 5 mph 1011.6mb 68f
1:24 2 5 mph 1011.7mb 68f
1:18 2 5 mph 1011.7mb 68f
1:12 2 6 mph 1011.9mb 68f
1:06 2 5 mph 1012.1mb 68f
1:00 2 5 mph 1012.1mb 68f
12:54 2 5 mph 1012.2mb 68f
12:48 2 6 mph 1012.2mb 68f
12:42 5 7 mph 1012.2mb 68f
12:36 3 6 mph 1012.3mb 68f
12:30 2 6 mph 1012.4mb 68f
12:24 3 7 mph 1012.5mb 68f
12:18 2 5 mph - -
12:12 3 7 mph 1012.8mb 68f
12:06 3 7 mph 1012.9mb 68f
12:00 3 7 mph 1013mb 68f
Qui 06/22 11:54 3 5 mph 1013.1mb 68f
11:48 3 7 mph 1013.1mb -
11:42 2 5 mph 1013.2mb 68f
11:36 2 6 mph 1013.2mb 68f
11:30 3 6 mph 1013.3mb 68f
11:24 2 5 mph 1013.2mb 68f
11:18 2 3 mph 1013.1mb 68f
11:12 2 5 mph 1013.1mb 68f
11:06 2 3 mph 1013.1mb 68f
11:00 2 5 mph 1013.1mb 68f
10:54 2 6 mph 1013.1mb 68f
10:48 2 7 mph - -
10:42 2 3 mph 1013.2mb 68f
10:36 3 6 mph 1013.3mb 68f
10:30 2 5 mph 1013.3mb 68f
10:24 3 8 mph 1013.3mb 68f
10:18 3 7 mph 1013.2mb -
10:12 2 5 mph 1013.1mb 69f
10:06 3 7 mph 1013.1mb 69f
10:00 3 7 mph 1013.2mb 69f
9:54 3 6 mph 1013.2mb 69f
9:48 3 8 mph 1013.2mb 69f
9:42 5 9 mph 1013.3mb 70f
9:36 3 6 mph 1013.2mb 70f
9:30 2 5 mph 1013.1mb 69f
9:24 3 7 mph 1013.2mb 69f
9:18 3 8 mph 1013.3mb -
9:12 5 8 mph 1013.3mb 70f
9:06 6 10 mph 1013.2mb 71f
9:00 5 8 mph 1013.2mb 71f
8:48 6 10 mph 1013.1mb -
8:42 6 9 mph 1013mb 71f
8:36 6 9 mph 1013mb 71f
8:30 6 9 mph 1013mb 71f
8:24 5 10 mph 1013mb 71f
8:18 7 11 mph 1013mb 71f
8:12 7 13 mph 1013mb 72f
8:06 7 11 mph 1012.9mb 71f
8:00 7 11 mph 1012.9mb 72f
7:48 6 11 mph 1012.9mb -
7:42 5 10 mph 1012.9mb 71f
7:36 6 10 mph 1012.8mb 71f
7:30 6 9 mph 1012.8mb 71f
7:24 5 8 mph 1012.8mb 71f
7:18 6 10 mph - -
7:12 6 10 mph 1012.7mb 71f
7:06 6 11 mph 1012.7mb 71f
7:00 7 11 mph 1012.6mb 72f
6:54 7 11 mph 1012.5mb 72f
6:48 7 13 mph 1012.4mb 73f
6:42 6 11 mph 1012.5mb 73f
6:36 8 14 mph 1012.5mb 73f
6:30 8 11 mph 1012.4mb 74f
6:24 8 16 mph 1012.3mb 74f
6:18 6 10 mph 1012.3mb -
6:12 8 15 mph 1012.4mb 73f
6:06 9 15 mph 1012.5mb 73f
6:00 8 15 mph 1012.5mb 73f
5:54 7 15 mph 1012.3mb 73f
5:48 7 13 mph 1012.3mb 74f
5:42 7 14 mph 1012.4mb 75f
5:36 7 14 mph 1012.4mb 75f
5:30 7 13 mph 1012.4mb 75f
5:24 8 13 mph 1012.5mb 75f
5:18 10 16 mph 1012.4mb 76f
5:12 9 15 mph 1012.4mb 77f
5:06 11 20 mph 1012.4mb 77f
5:00 9 18 mph 1012.4mb 77f
4:54 9 15 mph 1012.4mb 77f
4:48 9 14 mph 1012.4mb 78f
4:42 11 20 mph 1012.4mb 78f
4:36 9 15 mph 1012.5mb 77f
4:30 9 15 mph 1012.5mb 78f
4:24 9 14 mph 1012.7mb 78f
4:18 10 18 mph 1012.6mb 77f
4:12 10 18 mph 1012.6mb 78f
4:06 9 16 mph 1012.6mb 78f
4:00 9 16 mph 1012.6mb 77f
3:54 9 15 mph 1012.5mb 77f
3:48 9 16 mph 1012.4mb 78f
3:42 8 16 mph 1012.6mb 78f
3:36 9 17 mph 1012.6mb 78f
3:30 10 15 mph 1012.6mb 78f
3:24 6 11 mph 1012.6mb 78f
3:18 6 10 mph 1012.6mb 79f
3:12 6 13 mph 1012.6mb 79f
3:06 6 14 mph 1012.7mb 79f
3:00 6 11 mph 1012.7mb 78f
2:54 6 14 mph 1012.7mb 77f
2:48 7 15 mph 1012.8mb 78f
2:42 5 11 mph 1012.8mb 77f
2:36 3 9 mph 1012.9mb 78f
2:30 6 9 mph 1013.1mb 78f
2:24 6 11 mph 1013.2mb 77f
2:18 5 11 mph 1013.2mb 77f
2:12 6 11 mph 1013.3mb 77f
2:06 7 11 mph 1013.4mb 77f
2:00 6 13 mph 1013.5mb 76f
1:54 3 9 mph 1013.6mb 76f
1:48 5 9 mph - -
1:42 5 10 mph 1013.8mb 76f
1:36 7 14 mph 1013.8mb 76f
1:30 8 16 mph 1013.8mb 76f
1:24 6 13 mph 1013.8mb 75f
1:18 6 15 mph 1013.9mb 76f
1:12 7 14 mph 1014mb 76f
1:06 7 13 mph 1014.1mb 76f
1:00 6 13 mph 1014mb 74f
12:54 3 8 mph 1014.1mb 76f
12:48 6 11 mph - -
12:42 5 9 mph 1014.3mb 75f
12:36 6 10 mph 1014.2mb 76f
12:30 6 10 mph 1014.2mb 75f
12:24 3 8 mph 1014.3mb 75f
12:18 3 7 mph 1014.5mb 76f
12:12 3 7 mph 1014.5mb 77f
12:06 3 6 mph 1014.5mb 77f
12:00 3 6 mph 1014.5mb 77f
11:54 2 6 mph 1014.6mb 76f
11:48 2 5 mph 1014.6mb 77f
11:42 2 5 mph 1014.5mb 77f
11:36 1 3 mph 1014.5mb 77f
11:30 2 5 mph 1014.6mb 77f
11:24 3 7 mph 1014.5mb 76f
11:18 5 8 mph 1014.5mb 76f
11:12 1 3 mph 1014.4mb 75f
11:06 1 5 mph 1014.3mb 75f
11:00 2 5 mph 1014.4mb 76f
10:54 2 5 mph 1014.5mb 74f
10:48 3 5 mph 1014.7mb 74f
10:42 5 7 mph 1014.7mb 73f
10:36 2 5 mph 1014.8mb 73f
10:30 2 5 mph 1014.9mb 74f
10:24 2 5 mph 1015mb 74f
10:18 3 6 mph - -
10:12 3 6 mph 1015.2mb 73f
10:06 5 9 mph 1015.2mb 74f
10:00 3 7 mph 1015.3mb 72f
9:54 3 6 mph 1015.3mb 74f
9:48 3 6 mph 1015.3mb 74f
9:42 2 5 mph 1015.4mb 74f
9:36 2 5 mph 1015.6mb 74f
9:30 2 6 mph 1015.6mb 74f
9:24 2 7 mph 1015.7mb 74f
9:18 3 6 mph 1015.8mb 74f
9:12 3 7 mph 1015.8mb 74f
9:06 3 7 mph 1015.9mb 73f
9:00 5 7 mph 1016mb 73f
8:54 5 7 mph 1015.9mb 72f
8:48 6 8 mph 1015.8mb 72f
8:42 6 10 mph 1015.8mb 72f
8:36 5 8 mph 1015.8mb 71f
8:30 6 10 mph 1015.8mb 71f
8:24 5 7 mph 1015.9mb 71f
8:18 6 9 mph 1015.9mb 70f
8:12 2 7 mph 1015.9mb 69f
8:06  -  3 mph 1015.8mb 70f
8:00 3 5 mph 1015.7mb 69f
7:54 1 3 mph 1015.7mb 68f
7:48 1 2 mph 1015.5mb 68f
7:42 3 3 mph 1015.5mb 68f
7:36 3 6 mph 1015.6mb 68f
7:30 1 5 mph 1015.5mb 67f
7:24 3 7 mph 1015.5mb 67f
7:18  -  2 mph 1015.5mb 67f
7:12 2 6 mph 1015.4mb 67f
7:06 3 8 mph 1015.4mb 67f
7:00 5 9 mph 1015.4mb 66f
6:54 3 9 mph 1015.4mb 67f
6:48 3 6 mph 1015.2mb 67f
6:42 3 5 mph 1015mb 67f
6:36 3 5 mph 1015.1mb 66f
6:30 2 5 mph 1015mb 66f
6:24  -  2 mph 1014.9mb 67f
6:18  -  0 mph 1014.9mb 67f
6:12  -  1 mph 1014.9mb 66f
6:06 1 2 mph 1015mb 66f
6:00 2 5 mph 1014.9mb 66f
5:54  -  2 mph 1014.8mb 66f
5:48 1 2 mph 1014.8mb 66f
5:42 2 3 mph 1014.7mb 65f
5:36 2 5 mph 1014.6mb 64f
5:30 2 3 mph 1014.6mb 64f
5:24 2 3 mph 1014.5mb 64f
5:18 3 6 mph 1014.4mb 63f
5:12 5 8 mph 1014.3mb 63f
5:06 5 6 mph 1014.3mb 63f
5:00 5 7 mph 1014.3mb 63f
4:54 5 7 mph 1014.3mb 63f
4:48 5 6 mph - -
4:42 3 7 mph 1014.2mb 64f
4:36 3 6 mph 1014.1mb 64f
4:30 3 6 mph 1014mb 64f
4:24 2 6 mph 1014mb 64f
4:18 1 3 mph 1014mb 63f
4:12 2 3 mph 1014mb 64f
4:06  -  2 mph 1014mb 64f
4:00  -  1 mph 1014mb 64f
3:54 1 3 mph 1014mb 64f
3:48  -  1 mph 1013.9mb 63f
3:42  -  1 mph 1013.8mb 63f
3:36  -  2 mph 1013.8mb 64f
3:30  -  2 mph 1013.8mb 63f
3:24  -  2 mph 1013.7mb 64f
3:18 1 2 mph 1013.7mb 64f
3:12  -  1 mph 1013.6mb 64f
3:06 1 3 mph 1013.6mb 65f
3:00 1 2 mph 1013.5mb 65f
2:54  -  1 mph 1013.5mb 65f
2:48  -  2 mph 1013.5mb 65f
2:42 1 3 mph 1013.5mb -
2:36 2 5 mph 1013.4mb -
2:30 5 7 mph 1013.3mb 66f
2:24 5 5 mph 1013.4mb 65f
2:18 3 5 mph 1013.4mb 65f
2:12 3 6 mph 1013.4mb 66f
2:06 3 5 mph 1013.4mb 66f
2:00 3 6 mph 1013.4mb 66f
1:54 3 5 mph 1013.4mb 66f
1:48 3 5 mph 1013.5mb -
1:42 3 3 mph 1013.4mb -
1:36 3 5 mph 1013.5mb -
1:30 3 5 mph 1013.5mb 66f
1:24 3 6 mph 1013.4mb 66f
1:18 2 6 mph - -
1:12 3 3 mph 1013.4mb 66f
1:06 2 3 mph 1013.4mb 66f
1:00 1 2 mph 1013.4mb 66f
12:54  -  1 mph 1013.3mb 67f
12:48  -  1 mph 1013.4mb 66f
12:42  -  2 mph 1013.4mb 66f
12:36 1 2 mph 1013.4mb 67f
12:30 3 6 mph 1013.4mb 67f
12:24 2 2 mph 1013.3mb 67f
12:18 2 5 mph 1013.3mb 67f
12:12 3 7 mph 1013.2mb 68f
12:06 3 6 mph 1013.2mb 68f
12:00 3 6 mph 1013.1mb 67f
Qua 06/21 11:54 2 3 mph 1013mb 68f
11:48 2 3 mph 1013mb -
11:42 2 3 mph 1013mb 69f
11:36 3 5 mph 1013mb 69f
11:30 2 5 mph 1012.9mb 69f
11:24 2 2 mph 1012.8mb 69f
11:18 2 3 mph 1012.7mb 69f
11:12 2 5 mph 1012.8mb 68f
11:06 5 6 mph 1012.7mb 68f
11:00 6 8 mph 1012.7mb 68f
10:54 6 8 mph 1012.6mb 69f
10:48 5 8 mph 1012.6mb 68f
10:42 5 7 mph 1012.5mb 68f
10:36 5 7 mph 1012.6mb 68f
10:30 5 6 mph 1012.6mb 67f
10:24 5 7 mph 1012.6mb 67f
10:18 5 6 mph 1012.6mb -
10:12 5 6 mph 1012.6mb 66f
10:06 3 6 mph 1012.5mb 67f
10:00 2 2 mph 1012.5mb 66f
9:54  -  1 mph 1012.5mb 67f
9:48 2 2 mph 1012.4mb 66f
9:42 3 5 mph 1012.3mb 67f
9:36 3 5 mph 1012.2mb 67f
9:30 3 5 mph 1012.1mb 67f
9:24 5 8 mph 1012.1mb 68f
9:18 6 8 mph 1012.1mb 68f
9:12 6 8 mph 1012mb 68f
9:06 3 5 mph 1011.9mb 68f
9:00 3 6 mph 1011.8mb 68f
8:54 6 8 mph 1011.6mb 68f
8:48 5 8 mph 1011.5mb -
8:42 6 9 mph 1011.4mb 68f
8:36 7 9 mph 1011.4mb 68f
8:30 8 10 mph 1011.3mb 69f
8:24 7 10 mph 1011.3mb 69f
8:18 6 10 mph 1011.3mb 69f
8:12 7 11 mph 1011.3mb 69f
8:06 7 11 mph 1011.2mb 69f
8:00 7 13 mph 1011.2mb 70f
7:54 8 14 mph 1011.1mb 70f
7:48 9 15 mph 1011.2mb -
7:42 11 18 mph 1011.2mb 69f
7:36 11 17 mph 1011.2mb 69f
7:30 10 17 mph 1011.1mb 69f
7:24 14 22 mph 1011mb 70f
7:18 13 21 mph - -
7:12 13 21 mph 1010.7mb 72f
7:06 16 25 mph 1010.5mb 74f
7:00 13 21 mph 1010.5mb 76f
6:54 9 15 mph 1010.2mb 76f
6:48 7 11 mph 1010.2mb 74f
6:42 8 17 mph 1010.3mb 74f
6:36 6 10 mph 1010.2mb 75f
6:30 6 11 mph 1010mb 74f
6:24 5 8 mph 1010mb 74f
6:18 6 9 mph 1010mb -
6:12 7 11 mph 1009.9mb 74f
6:06 8 13 mph 1009.9mb 74f
6:00 8 11 mph 1009.8mb 74f
5:54 7 14 mph 1009.9mb 74f
5:48 6 11 mph 1009.9mb -
5:42 7 14 mph 1009.8mb 75f
5:36 7 15 mph 1009.8mb 73f
5:30 6 13 mph 1009.8mb 73f
5:24 6 14 mph 1009.7mb 73f
5:18 6 15 mph 1009.7mb 75f
5:12 6 14 mph 1009.8mb 75f
5:06 7 11 mph 1009.8mb 76f
5:00 8 16 mph 1009.8mb 76f
4:54 7 11 mph 1009.7mb 76f
4:48 8 14 mph - -
4:42 8 13 mph 1009.7mb 76f
4:36 9 16 mph 1009.7mb 76f
4:30 9 18 mph 1009.6mb 77f
4:24 9 16 mph 1009.6mb 78f
4:18 11 16 mph 1009.6mb 78f
4:12 8 16 mph 1009.6mb 78f
4:06 9 16 mph 1009.7mb 79f
4:00 10 18 mph 1009.7mb 79f
3:54 10 16 mph 1009.7mb 79f
3:48 9 15 mph 1009.7mb 78f
3:42 10 18 mph 1009.8mb 79f
3:36 11 20 mph 1009.8mb 79f
3:30 10 18 mph 1009.7mb 79f
3:24 9 17 mph 1009.7mb 78f
3:18 9 16 mph 1009.7mb 78f
3:12 10 18 mph 1009.8mb 78f
3:06 9 16 mph 1009.7mb 79f
3:00 9 18 mph 1009.8mb 77f
2:54 8 15 mph 1009.9mb 81f
2:48 10 18 mph 1009.9mb 81f
2:42 9 15 mph 1010mb 81f
2:36 8 15 mph 1010mb 80f
2:30 9 18 mph 1010mb 81f
2:24 7 11 mph 1010.1mb 81f
2:18 10 17 mph 1010.2mb 81f
2:12 11 18 mph 1010.2mb 82f
2:06 10 17 mph 1010.1mb 83f
2:00 10 16 mph 1010.2mb 83f
1:54 10 15 mph 1010.3mb 83f
1:48 13 22 mph - -
1:42 9 17 mph - -
1:36 10 20 mph - -
1:30 11 18 mph 1010.6mb 82f
1:24 13 22 mph 1010.5mb 83f
1:18 9 15 mph 1010.6mb 82f
1:12 8 14 mph 1010.7mb 82f
1:06 11 18 mph 1010.7mb 82f
1:00 13 22 mph 1010.7mb 83f
12:54 13 23 mph 1010.8mb 83f
12:48 9 16 mph 1010.9mb 82f
12:42 8 14 mph 1011mb 83f
12:36 11 18 mph 1011mb 83f
12:30 9 15 mph 1011.1mb 81f
12:24 10 20 mph 1011.1mb 81f
12:18 9 21 mph 1011.2mb 81f
12:12 8 14 mph 1011.2mb 83f
12:06 8 15 mph 1011.3mb 83f
12:00 8 16 mph 1011.4mb 81f
11:54 9 15 mph 1011.5mb 81f
11:48 10 16 mph 1011.3mb 82f
11:42 9 14 mph 1011.4mb 83f
11:36 10 18 mph 1011.5mb 82f
11:30 9 15 mph 1011.4mb 82f
11:24 9 15 mph 1011.5mb 81f
11:18 8 15 mph 1011.6mb 82f
11:12 7 14 mph 1011.6mb 81f
11:06 5 9 mph 1011.6mb 81f
11:00 5 9 mph 1011.7mb 80f
10:54 5 9 mph 1011.8mb 76f
10:48 5 8 mph - -
10:42 5 8 mph 1011.8mb 76f
10:36 6 11 mph 1011.8mb 76f
10:30 5 9 mph 1011.9mb 77f
10:24 5 7 mph 1011.9mb 77f
10:18 5 9 mph 1011.8mb 78f
10:12 5 8 mph 1011.9mb 77f
10:06 3 7 mph 1011.9mb 76f
10:00 5 7 mph 1012mb 77f
9:54 5 9 mph 1012.1mb 76f
9:48 5 8 mph - -
9:42 3 8 mph 1012mb 75f
9:36 3 8 mph 1012mb 76f
9:30 3 7 mph 1012.1mb 75f
9:24 3 7 mph 1012.1mb 75f
9:18 3 6 mph 1012.2mb 74f
9:12 3 6 mph 1012.3mb 74f
9:06 2 9 mph 1012.4mb 74f
9:00 3 8 mph 1012.6mb 74f
8:54 5 10 mph 1012.6mb 73f
8:48 6 10 mph 1012.7mb 72f
8:42 6 9 mph 1012.7mb 71f
8:36 5 8 mph 1012.7mb 71f
8:30 5 8 mph 1012.7mb 72f
8:24 6 8 mph 1012.7mb 72f
8:18 3 6 mph - -
8:12 3 7 mph 1012.6mb 71f
8:06 3 7 mph 1012.6mb 70f
8:00 3 6 mph 1012.6mb 70f
7:54 6 8 mph 1012.7mb 69f
7:48 3 6 mph 1012.7mb 69f
7:42 3 7 mph 1012.7mb 68f
7:36 5 8 mph 1012.7mb 68f
7:30 5 9 mph 1012.8mb 68f
7:24 5 8 mph 1012.8mb 67f
7:18 5 8 mph 1012.7mb 67f
7:12 3 7 mph 1012.7mb 67f
7:06 5 9 mph 1012.8mb 66f
7:00 5 9 mph 1012.8mb 66f
6:54 6 11 mph 1012.8mb 65f
6:48 5 11 mph - -
6:42 5 8 mph 1012.9mb 66f
6:36 3 7 mph 1012.8mb 65f
6:30 3 7 mph 1012.8mb 65f
6:24 3 7 mph 1012.9mb 65f
6:18 3 7 mph 1012.9mb 65f
6:12 3 7 mph 1012.9mb 65f
6:06 3 5 mph 1012.9mb 66f
6:00 2 5 mph 1012.8mb 66f
5:54 3 7 mph 1012.8mb 66f
5:48 3 6 mph 1012.7mb 66f
5:42 6 9 mph 1012.7mb 66f
5:36 5 8 mph 1012.8mb 66f
5:30 6 8 mph 1012.8mb 66f
5:24 5 7 mph 1012.8mb 66f
5:18 6 8 mph - -
5:12 5 7 mph 1012.8mb 66f
5:06 5 6 mph 1012.8mb 65f
5:00 5 7 mph 1012.8mb 65f
4:54 5 7 mph 1012.7mb 65f
4:48 5 6 mph 1012.7mb 66f
4:42 5 7 mph 1012.6mb 65f
4:36 6 9 mph 1012.6mb 65f
4:30 5 6 mph 1012.6mb 65f
4:24 3 5 mph 1012.6mb 65f
4:18 3 7 mph 1012.6mb 65f
4:12 2 5 mph 1012.6mb 65f
4:06 2 5 mph 1012.5mb 65f
4:00 1 2 mph 1012.5mb 65f
3:54 1 3 mph 1012.5mb 65f
3:48 2 6 mph - -
3:42 2 6 mph 1012.6mb 65f
3:36 2 6 mph 1012.7mb 65f
3:30 3 6 mph 1012.7mb 65f
3:24 3 8 mph 1012.8mb 65f
3:18 3 6 mph 1012.9mb 65f
3:12 2 6 mph 1012.9mb 65f
3:06 3 6 mph 1013mb 65f
3:00 3 7 mph 1012.9mb 65f
2:54 5 7 mph 1012.9mb 65f
2:48 3 7 mph 1012.9mb 65f
2:42 5 9 mph 1013mb 65f
2:36 5 7 mph 1013mb 65f
2:30 3 6 mph 1013.1mb 65f
2:24 3 8 mph 1013mb 65f
2:18 5 8 mph 1013.1mb 65f
2:12 3 6 mph 1013.1mb 65f
2:06 2 7 mph 1013mb 65f
2:00 3 6 mph 1013.1mb 65f
1:54 3 6 mph 1013.1mb 65f
1:48 3 7 mph 1013.1mb 65f
1:42 2 5 mph 1013.2mb 65f
1:36 3 6 mph 1013.2mb 65f
1:30 2 6 mph 1013.2mb 65f
1:24 3 8 mph 1013.3mb 66f
1:18 3 7 mph - -
1:12 5 9 mph 1013.3mb 66f
1:06 3 7 mph 1013.3mb 66f
1:00 3 7 mph 1013.3mb 66f
12:54 5 8 mph 1013.4mb 66f
12:48 3 8 mph 1013.5mb 66f
12:42 3 7 mph 1013.5mb 66f
12:36 3 6 mph 1013.5mb 66f
12:30 3 6 mph 1013.6mb 66f
12:24 3 7 mph 1013.5mb 67f
12:18 3 7 mph 1013.6mb 67f
12:12 3 7 mph 1013.6mb 67f
12:06 3 7 mph 1013.6mb 67f
12:00 3 6 mph 1013.7mb 67f
Ter 06/20 11:54 3 6 mph 1013.7mb 67f
11:48 3 6 mph 1013.8mb -
11:42 3 6 mph 1013.7mb 67f
11:36 2 6 mph 1013.7mb 67f
11:30 3 7 mph 1013.7mb 67f
11:24 7 10 mph 1013.7mb 69f
11:18 7 11 mph 1013.7mb 69f
11:12 5 7 mph 1013.6mb 69f
11:06 6 10 mph 1013.7mb 69f
11:00 7 9 mph 1013.7mb 69f
10:54 7 11 mph 1013.6mb 69f
10:48 8 11 mph 1013.5mb 69f
10:42 8 13 mph 1013.4mb 70f
10:36 8 13 mph 1013.5mb 70f
10:30 8 14 mph 1013.5mb 70f
10:24 8 13 mph 1013.5mb 70f
10:18 7 11 mph 1013.5mb -
10:12 7 13 mph 1013.5mb 70f
10:06 8 13 mph 1013.6mb 71f
10:00 8 13 mph 1013.5mb 71f
9:54 6 9 mph 1013.4mb 71f
9:48 6 9 mph 1013.4mb 70f
9:42 7 11 mph 1013.4mb 70f
9:36 8 14 mph 1013.3mb 71f
9:30 8 11 mph 1013.2mb 71f
9:24 9 15 mph 1013.2mb 72f
9:18 8 11 mph - -
9:12 9 14 mph 1013.1mb 72f
9:06 9 15 mph 1013mb 72f
9:00 9 14 mph 1013mb 73f
8:54 10 16 mph 1012.9mb 73f
8:48 9 15 mph - -
8:42 8 14 mph 1012.7mb 73f
8:36 9 13 mph 1012.7mb 73f
8:30 9 14 mph 1012.6mb 73f
8:24 10 15 mph 1012.5mb 73f
8:18 9 16 mph 1012.4mb 73f
8:12 10 15 mph 1012.4mb 73f
8:06 11 17 mph 1012.5mb 74f
8:00 10 15 mph 1012.4mb 74f
7:54 10 16 mph 1012.3mb 74f
7:48 11 17 mph 1012.3mb -
7:42 10 17 mph 1012.3mb 74f
7:36 8 15 mph 1012.2mb 74f
7:30 9 17 mph 1012.1mb 74f
7:24 13 20 mph 1012mb 75f
7:00 11 20 mph 1011.8mb 76f
6:54 11 22 mph 1011.8mb 76f
6:48 11 20 mph 1011.8mb 76f
6:42 11 21 mph 1011.7mb 76f
6:36 14 24 mph 1011.6mb 76f
6:30 14 21 mph 1011.5mb 76f
6:24 10 18 mph 1011.5mb 77f
6:18 10 21 mph - -
6:12 9 16 mph 1011.5mb 76f
6:06 10 17 mph 1011.4mb 76f
6:00 11 18 mph 1011.3mb 76f
5:54 11 18 mph 1011.3mb 77f
5:48 10 16 mph 1011.3mb 77f
5:42 10 21 mph 1011.3mb 77f
5:36 10 20 mph 1011.3mb 77f
5:30 14 28 mph 1011.3mb 77f
5:24 13 20 mph 1011.2mb 78f
5:18 10 18 mph 1011.2mb 78f
5:12 10 20 mph 1011.2mb 78f
5:06 11 16 mph 1011.3mb 78f
5:00 10 18 mph 1011.3mb 78f
4:54 13 22 mph 1011.2mb 78f
4:48 13 22 mph - -
4:42 13 23 mph 1011mb 78f
4:36 13 21 mph 1011mb 78f
4:30 11 20 mph 1011mb 78f
4:24 13 21 mph 1011mb 78f
4:18 11 18 mph 1011.1mb 78f
4:12 10 22 mph 1011mb 78f
4:06 11 18 mph 1010.9mb 78f
4:00 10 17 mph 1010.9mb 77f
3:54 13 22 mph 1010.9mb 78f
3:48 10 20 mph - -
3:42 11 20 mph 1010.8mb 78f
3:36 11 21 mph 1010.8mb 78f
3:30 9 20 mph 1010.8mb 78f
3:24 10 16 mph 1010.8mb 78f
3:18 10 18 mph 1010.8mb 78f
3:12 9 17 mph 1010.9mb 77f
3:06 10 20 mph 1010.9mb 78f
3:00 8 14 mph 1010.9mb 77f
2:54 10 16 mph 1010.9mb 77f
2:48 9 17 mph 1010.8mb 77f
2:42 9 15 mph 1010.8mb 78f
2:36 10 18 mph 1010.7mb 77f
2:30 9 17 mph 1010.8mb 77f
2:24 10 18 mph 1010.8mb 77f
2:18 10 21 mph 1010.9mb 77f
2:12 9 17 mph 1010.9mb 77f
2:06 8 15 mph 1010.9mb 76f
2:00 8 17 mph 1011mb 74f
1:54 9 18 mph 1010.9mb 75f
1:48 9 17 mph 1010.9mb 74f
1:42 8 16 mph 1010.9mb 74f
1:36 7 15 mph 1011mb 74f
1:30 9 16 mph 1011.1mb 74f
1:24 7 15 mph 1011.1mb 74f
1:18 7 15 mph - -
1:12 7 16 mph 1011.1mb 74f
1:06 7 15 mph 1011.2mb 74f
1:00 8 16 mph 1011.2mb 75f
12:54 9 16 mph 1011.3mb 74f
12:48 8 17 mph 1011.3mb 73f
12:42 8 17 mph 1011.4mb 74f
12:36 8 15 mph 1011.4mb 73f
12:30 8 14 mph 1011.5mb 72f
12:24 8 14 mph 1011.5mb 71f
12:18 6 14 mph 1011.6mb 71f
12:12 7 13 mph 1011.6mb 72f
12:06 7 14 mph 1011.5mb 72f
12:00 6 14 mph 1011.5mb 72f
11:54 7 14 mph 1011.5mb 72f
11:48 6 14 mph 1011.5mb 72f
11:42 8 15 mph 1011.5mb 72f
11:36 6 11 mph 1011.5mb 71f
11:30 6 13 mph 1011.6mb 72f
11:24 6 11 mph 1011.5mb 73f
11:18 6 13 mph - -
11:12 7 16 mph 1011.5mb 72f
11:06 6 13 mph 1011.5mb 72f
11:00 5 14 mph 1011.5mb 72f
10:54 7 13 mph 1011.5mb 72f
10:48 5 10 mph 1011.6mb 72f
10:42 6 10 mph 1011.6mb 73f
10:36 5 8 mph 1011.6mb 71f
10:30 6 13 mph 1011.5mb 71f
10:24 6 11 mph 1011.4mb 71f
10:18 5 9 mph - -
10:12 6 10 mph 1011.2mb 72f
10:06 5 9 mph 1011.2mb 71f
10:00 3 7 mph 1011.4mb 70f
9:54 5 8 mph 1011.5mb 69f
9:48 5 9 mph 1011.7mb 68f
9:42 5 8 mph 1011.7mb 68f
9:36 6 13 mph 1011.5mb 68f
9:30 5 10 mph 1011.4mb 68f
9:24 3 8 mph 1011.3mb 68f
9:18 5 10 mph 1011.3mb 68f
9:12 3 7 mph 1011.3mb 67f
9:06 5 10 mph 1011.4mb 67f
9:00 5 8 mph 1011.4mb 68f
8:54 5 8 mph 1011.5mb 68f
8:48 5 7 mph - -
8:42 6 10 mph 1011.6mb 67f
8:36 3 7 mph 1011.6mb 67f
8:30 5 8 mph 1011.5mb 67f
8:24 5 11 mph 1011.5mb 67f
8:18 3 7 mph 1011.5mb 67f
8:12 3 7 mph 1011.4mb 67f
8:06 5 9 mph 1011.4mb 67f
8:00 5 14 mph 1011.2mb 67f
7:54 5 13 mph 1011.2mb 67f
7:48 5 10 mph - -
7:42 5 9 mph 1011.1mb 67f
7:36 6 10 mph 1011mb 67f
7:30 5 9 mph 1011.2mb 67f
7:24 5 8 mph 1011.2mb 67f
7:18 6 9 mph 1011mb 67f
7:12 6 10 mph 1011mb 67f
7:06 6 11 mph 1011.1mb 67f
7:00 5 9 mph 1010.8mb 67f
6:54 6 11 mph 1010.6mb 67f
6:48 6 11 mph - -
6:42 6 11 mph 1010.9mb 67f
6:36 6 11 mph 1010.9mb 67f
6:30 7 13 mph 1011.1mb 67f
6:24 7 13 mph 1011.1mb 67f
6:18 6 14 mph 1010.9mb 67f
6:12 6 11 mph 1010.8mb 67f
6:06 7 13 mph 1010.8mb 67f
6:00 7 14 mph 1010.9mb 67f
5:54 7 15 mph 1010.8mb 67f
5:48 7 11 mph 1010.8mb 67f
5:42 6 10 mph 1010.7mb 67f
5:36 6 11 mph 1010.6mb 67f
5:30 6 13 mph 1010.5mb 68f
5:24 6 10 mph 1010.4mb 67f
5:18 6 11 mph 1010.4mb 67f
5:12 5 10 mph 1010.4mb 68f
5:06 6 11 mph 1010.4mb 68f
5:00 5 9 mph 1010.4mb 68f
4:54 5 9 mph 1010.4mb 68f
4:48 6 10 mph 1010.4mb 68f
4:42 5 9 mph 1010.5mb 68f
4:36 6 9 mph 1010.5mb 68f
4:30 6 8 mph 1010.4mb 68f
4:24 6 13 mph 1010.5mb 68f
4:18 7 10 mph 1010.5mb 68f
4:12 8 14 mph 1010.4mb 68f
4:06 7 13 mph 1010.4mb 68f
4:00 8 13 mph 1010.4mb 68f
3:54 8 14 mph 1010.5mb 69f
3:48 9 17 mph - -
3:42 8 15 mph 1010.6mb 69f
3:36 9 16 mph 1010.7mb 69f
3:30 9 15 mph 1010.8mb 69f
3:24 9 15 mph 1010.8mb 69f
3:18 9 16 mph 1010.9mb 69f
3:12 9 16 mph 1010.9mb 69f
3:06 8 14 mph 1010.9mb 69f
3:00 8 17 mph 1010.8mb 68f
2:54 10 17 mph 1010.9mb 68f
2:48 9 16 mph 1011.1mb -
2:42 8 13 mph 1011.1mb -
2:36 7 13 mph 1011.1mb -
2:30 6 13 mph 1011mb 68f
2:24 7 10 mph 1011mb 68f
2:18 8 14 mph - -
2:12 8 15 mph 1011mb 68f
2:06 8 16 mph 1011mb 68f
2:00 7 11 mph 1011.1mb 68f
1:54 6 10 mph 1011.2mb 68f
1:48 7 11 mph 1011.3mb 68f
1:42 7 11 mph 1011.5mb 68f
1:36 7 13 mph 1011.5mb 68f
1:30 6 11 mph 1011.6mb 68f
1:24 6 9 mph 1011.5mb 68f
1:18 6 9 mph 1011.4mb 68f
1:12 6 13 mph 1011.3mb 68f
1:06 7 11 mph 1011.3mb 68f
1:00 7 10 mph 1011.3mb 68f
12:54 6 10 mph 1011.2mb 68f
12:48 7 13 mph - -
12:42 7 14 mph 1011.6mb 68f
12:36 6 9 mph 1011.6mb 68f
12:30 5 8 mph 1011.3mb 67f
12:24 5 7 mph 1011.1mb 67f
12:18 5 9 mph 1011.4mb 67f
12:12 6 9 mph 1011.7mb 67f
12:06 7 11 mph 1011.8mb 67f
12:00 7 13 mph 1011.6mb 67f
Seg 06/19 11:54 8 14 mph 1011.7mb 67f
11:48 9 15 mph 1011.8mb 67f
11:42 10 17 mph 1011.9mb 67f
11:36 10 17 mph 1012mb 67f
11:30 10 17 mph 1012mb 67f
11:24 10 20 mph 1012.1mb 67f
11:18 9 15 mph 1012.1mb 67f
11:12 10 17 mph 1012.2mb 67f
11:06 9 16 mph 1012.2mb 67f
11:00 8 14 mph 1012.2mb 67f
10:54 8 15 mph 1012mb 67f
10:48 9 17 mph 1012.2mb 67f
10:42 7 13 mph 1012.3mb 68f
10:36 7 13 mph 1011.9mb 68f
10:30 7 11 mph 1011.8mb 68f
10:24 7 10 mph 1011.7mb 68f
10:18 7 13 mph 1011.5mb -
10:12 7 11 mph 1011.6mb 68f
10:06 10 21 mph 1011.6mb 68f
10:00 9 17 mph 1012mb 68f
9:54 8 14 mph 1011.9mb 68f
9:48 9 16 mph 1012mb -
9:42 8 16 mph 1012.1mb 68f
9:36 7 15 mph 1012.1mb 68f
9:30 7 14 mph 1012.1mb 68f
9:24 6 14 mph 1012.2mb 68f
9:18 8 14 mph 1012.2mb -
9:12 7 11 mph 1012.2mb 68f
9:06 9 17 mph 1012.2mb 68f
9:00 8 16 mph 1012.3mb 68f
8:54 7 14 mph 1012.3mb 68f
8:48 8 17 mph 1012.1mb -
8:42 7 15 mph 1012mb 68f
8:36 7 15 mph 1011.9mb 68f
8:30 7 14 mph 1011.8mb 68f
8:24 8 14 mph 1011.8mb 68f
8:18 8 17 mph 1011.8mb 69f
8:12 8 16 mph 1011.7mb 69f
8:06 9 18 mph 1011.8mb 69f
8:00 8 14 mph 1011.8mb 69f
7:54 8 17 mph 1011.8mb 69f
7:48 9 17 mph 1011.7mb -
7:42 8 15 mph 1011.6mb 69f
7:36 9 20 mph 1011.5mb 69f
7:30 6 11 mph 1011.3mb 69f
7:24 8 14 mph 1011.2mb 69f
7:18 7 13 mph 1011.3mb 69f
7:12 8 17 mph 1011.1mb 69f
7:06 10 17 mph 1011.1mb 69f
7:00 9 18 mph 1011.3mb 69f
6:54 7 13 mph 1011.2mb 69f
6:48 9 17 mph 1011.1mb 69f
6:42 9 17 mph 1011.4mb 69f
6:36 9 16 mph 1011.5mb 69f
6:30 9 21 mph 1011.3mb 69f
6:24 9 18 mph 1011.3mb 69f
6:18 9 17 mph 1011.2mb -
6:12 10 18 mph 1011.2mb 69f
6:06 10 22 mph 1011.2mb 69f
6:00 10 18 mph 1011.1mb 69f
5:54 13 22 mph 1011.1mb 69f
5:48 10 21 mph 1011.1mb -
5:42 10 21 mph 1011.2mb 69f
5:36 11 22 mph 1010.8mb 69f
5:30 9 18 mph 1010.9mb 70f
5:24 10 20 mph 1010.9mb 70f
5:18 9 20 mph 1011mb 70f
5:12 10 22 mph 1010.9mb 70f
5:06 10 17 mph 1011mb 70f
5:00 9 21 mph 1011mb 70f
4:54 10 16 mph 1011mb 70f
4:48 10 17 mph 1011mb 70f
4:42 9 17 mph 1011mb 70f
4:36 8 20 mph 1011.1mb 70f
4:30 9 17 mph 1011.1mb 69f
4:24 10 18 mph 1011mb 69f
4:18 8 15 mph 1011.2mb 69f
4:12 9 18 mph 1011.1mb 69f
4:06 8 16 mph 1011.1mb 69f
4:00 8 14 mph 1011.2mb 70f
3:54 9 17 mph 1011.1mb 70f
3:48 8 17 mph 1011mb 70f
3:42 8 15 mph 1011mb 71f
3:36 7 14 mph 1011.1mb 71f
3:30 8 14 mph 1011mb 73f
3:24 8 18 mph 1011mb 72f
3:18 7 18 mph - -
3:12 8 16 mph 1011.3mb 73f
3:06 9 18 mph 1011.1mb 73f
3:00 8 16 mph 1011.2mb 73f
2:54 8 14 mph 1011.3mb 74f
2:48 8 14 mph 1011.2mb 74f
2:42 9 15 mph 1011.3mb 73f
2:36 10 16 mph 1011.4mb 72f
2:30 9 15 mph 1011.5mb 72f
2:24 10 18 mph 1011.6mb 71f
2:18 9 18 mph 1011.7mb 71f
2:12 9 15 mph 1011.6mb 71f
2:06 9 21 mph 1011.7mb 70f
2:00 9 18 mph 1011.6mb 70f
1:54 8 16 mph 1011.8mb 70f
1:48 8 16 mph - -
1:42 8 14 mph 1011.9mb 70f
1:36 8 15 mph 1011.8mb 70f
1:30 8 17 mph 1011.9mb 71f
1:24 8 20 mph 1011.7mb 71f
1:18 7 16 mph 1011.8mb 71f
1:12 8 15 mph 1011.9mb 71f
1:06 7 14 mph 1012mb 71f
1:00 7 13 mph 1011.9mb 72f
12:54 7 15 mph 1011.9mb 72f
12:48 9 16 mph 1011.9mb 72f
12:42 6 15 mph 1011.8mb 72f
12:36 6 15 mph 1011.8mb 72f
12:30 6 10 mph 1012mb 72f
12:24 7 14 mph 1012.1mb 72f
12:18 7 14 mph 1012.1mb 71f
12:12 9 17 mph 1012.2mb 71f
12:06 8 15 mph 1012.2mb 71f
12:00 8 16 mph 1012.3mb 71f